| time (UTC) | temp F | wind direction | speed MPH | gust MPH | rain 1hr in | rain 24hr in | rain mn in | humidity % | barometer mb |
| 20260906220503 | 76 | 298 | 0.0 | 6.0 | 0.00 | 0.00 | 0.00 | 29 | 1024.4 |
| 20260906220009 | 77 | 337 | 2.0 | 7.0 | 0.00 | 0.00 | 0.00 | 28 | 1024.5 |
| 20260906215504 | 76 | 255 | 1.0 | 12.0 | 0.00 | 0.00 | 0.00 | 28 | 1024.5 |
| 20260906215004 | 77 | 285 | 4.0 | 12.0 | 0.00 | 0.00 | 0.00 | 28 | 1024.6 |
| 20260906214509 | 78 | 191 | 2.0 | 13.0 | 0.00 | 0.00 | 0.00 | 27 | 1024.5 |
| 20260906214003 | 78 | 205 | 5.0 | 13.0 | 0.00 | 0.00 | 0.00 | 27 | 1024.6 |
| 20260906213504 | 77 | 119 | 3.0 | 11.0 | 0.00 | 0.00 | 0.00 | 28 | 1024.6 |
| 20260906213010 | 77 | 262 | 2.0 | 10.0 | 0.00 | 0.00 | 0.00 | 27 | 1024.6 |
| 20260906212505 | 78 | 90 | 3.0 | 9.0 | 0.00 | 0.00 | 0.00 | 26 | 1024.9 |
| 20260906212006 | 78 | 242 | 2.0 | 9.0 | 0.00 | 0.00 | 0.00 | 27 | 1024.9 |
| 20260906211510 | 78 | 283 | 2.0 | 8.0 | 0.00 | 0.00 | 0.00 | 27 | 1024.9 |
| 20260906211004 | 78 | 44 | 3.0 | 10.0 | 0.00 | 0.00 | 0.00 | 27 | 1024.9 |
| 20260906210505 | 78 | 293 | 4.0 | 11.0 | 0.00 | 0.00 | 0.00 | 26 | 1025.0 |
| 20260906210012 | 78 | 252 | 4.0 | 12.0 | 0.00 | 0.00 | 0.00 | 28 | 1024.9 |
| 20260906205506 | 77 | 252 | 5.0 | 12.0 | 0.00 | 0.00 | 0.00 | 28 | 1025.0 |
| 20260906205008 | 77 | 307 | 3.0 | 10.0 | 0.00 | 0.00 | 0.00 | 26 | 1025.2 |
| 20260906204512 | 77 | 103 | 3.0 | 12.0 | 0.00 | 0.00 | 0.00 | 28 | 1025.2 |
| 20260906204004 | 76 | 69 | 3.0 | 12.0 | 0.00 | 0.00 | 0.00 | 28 | 1025.3 |
| 20260906203504 | 76 | 250 | 2.0 | 7.0 | 0.00 | 0.00 | 0.00 | 28 | 1025.4 |
| 20260906203013 | 75 | 318 | 3.0 | 10.0 | 0.00 | 0.00 | 0.00 | 29 | 1025.4 |
| 20260906202505 | 75 | 271 | 5.0 | 10.0 | 0.00 | 0.00 | 0.00 | 28 | 1025.5 |
| 20260906202008 | 75 | 278 | 4.0 | 12.0 | 0.00 | 0.00 | 0.00 | 28 | 1025.5 |
| 20260906201515 | 76 | 162 | 3.0 | 12.0 | 0.00 | 0.00 | 0.00 | 28 | 1025.7 |
| 20260906201005 | 75 | 283 | 2.0 | 9.0 | 0.00 | 0.00 | 0.00 | 28 | 1025.8 |
| 20260906200507 | 75 | 136 | 4.0 | 9.0 | 0.00 | 0.00 | 0.00 | 27 | 1025.8 |
| 20260906200015 | 75 | 348 | 5.0 | 9.0 | 0.00 | 0.00 | 0.00 | 29 | 1025.9 |
| 20260906195508 | 76 | 285 | 4.0 | 11.0 | 0.00 | 0.00 | 0.00 | 28 | 1025.8 |
| 20260906195007 | 76 | 259 | 5.0 | 11.0 | 0.00 | 0.00 | 0.00 | 27 | 1025.8 |
| 20260906194514 | 76 | 310 | 4.0 | 9.0 | 0.00 | 0.00 | 0.00 | 28 | 1025.9 |
| 20260906194008 | 75 | 14 | 1.0 | 11.0 | 0.00 | 0.00 | 0.00 | 29 | 1025.9 |
| 20260906193508 | 75 | 274 | 5.0 | 11.0 | 0.00 | 0.00 | 0.00 | 29 | 1026.0 |
| 20260906193010 | 75 | 259 | 4.0 | 10.0 | 0.00 | 0.00 | 0.00 | 29 | 1026.0 |
| 20260906192507 | 75 | 337 | 4.0 | 10.0 | 0.00 | 0.00 | 0.00 | 29 | 1025.9 |
| 20260906192008 | 75 | 326 | 4.0 | 12.0 | 0.00 | 0.00 | 0.00 | 29 | 1026.1 |
| 20260906191516 | 75 | 160 | 3.0 | 22.0 | 0.00 | 0.00 | 0.00 | 30 | 1026.3 |
| 20260906191007 | 75 | 253 | 1.0 | 22.0 | 0.00 | 0.00 | 0.00 | 31 | 1026.3 |
| 20260906190507 | 74 | 46 | 10.0 | 22.0 | 0.00 | 0.00 | 0.00 | 30 | 1026.2 |
| 20260906190017 | 73 | 5 | 3.0 | 12.0 | 0.00 | 0.00 | 0.00 | 30 | 1026.5 |
| 20260906185509 | 73 | 118 | 5.0 | 12.0 | 0.00 | 0.00 | 0.00 | 32 | 1026.5 |
| 20260906185007 | 74 | 113 | 5.0 | 12.0 | 0.00 | 0.00 | 0.00 | 31 | 1026.6 |
| 20260906184519 | 74 | 32 | 3.0 | 10.0 | 0.00 | 0.00 | 0.00 | 31 | 1026.6 |
| 20260906184007 | 74 | 210 | 5.0 | 10.0 | 0.00 | 0.00 | 0.00 | 30 | 1026.6 |
| 20260906183510 | 73 | 246 | 0.0 | 7.0 | 0.00 | 0.00 | 0.00 | 31 | 1026.7 |
| 20260906183019 | 73 | 343 | 4.0 | 9.0 | 0.00 | 0.00 | 0.00 | 29 | 1027.1 |
| 20260906182506 | 73 | 292 | 2.0 | 10.0 | 0.00 | 0.00 | 0.00 | 30 | 1027.2 |
| 20260906182011 | 73 | 5 | 3.0 | 10.0 | 0.00 | 0.00 | 0.00 | 32 | 1027.1 |
| 20260906181523 | 73 | 122 | 4.0 | 10.0 | 0.00 | 0.00 | 0.00 | 31 | 1027.2 |
| 20260906181009 | 72 | 195 | 1.0 | 10.0 | 0.00 | 0.00 | 0.00 | 30 | 1027.4 |
| 20260906180512 | 72 | 45 | 6.0 | 10.0 | 0.00 | 0.00 | 0.00 | 31 | 1027.4 |
| 20260906180031 | 73 | 15 | 4.0 | 8.0 | 0.00 | 0.00 | 0.00 | 30 | 1027.7 |
| 20260906175508 | 73 | 34 | 4.0 | 8.0 | 0.00 | 0.00 | 0.00 | 31 | 1027.7 |
| 20260906175008 | 72 | 294 | 3.0 | 6.0 | 0.00 | 0.00 | 0.00 | 32 | 1027.7 |
| 20260906174515 | 72 | 39 | 2.0 | 6.0 | 0.00 | 0.00 | 0.00 | 32 | 1027.7 |
| 20260906174010 | 72 | 133 | 3.0 | 6.0 | 0.00 | 0.00 | 0.00 | 32 | 1027.8 |
| 20260906173508 | 71 | 18 | 2.0 | 6.0 | 0.00 | 0.00 | 0.00 | 34 | 1027.9 |
| 20260906173026 | 71 | 261 | 3.0 | 9.0 | 0.00 | 0.00 | 0.00 | 33 | 1027.9 |
| 20260906172507 | 71 | 233 | 1.0 | 9.0 | 0.00 | 0.00 | 0.00 | 34 | 1027.9 |
| 20260906172009 | 70 | 34 | 2.0 | 13.0 | 0.00 | 0.00 | 0.00 | 33 | 1028.0 |
| 20260906171520 | 70 | 117 | 6.0 | 13.0 | 0.00 | 0.00 | 0.00 | 34 | 1028.2 |
| 20260906171011 | 71 | 43 | 2.0 | 7.0 | 0.00 | 0.00 | 0.00 | 33 | 1028.2 |
| 20260906170511 | 71 | 60 | 3.0 | 7.0 | 0.00 | 0.00 | 0.00 | 33 | 1028.2 |
| 20260906170024 | 70 | 41 | 2.0 | 10.0 | 0.00 | 0.00 | 0.00 | 35 | 1028.2 |
| 20260906165515 | 70 | 229 | 0.0 | 10.0 | 0.00 | 0.00 | 0.00 | 35 | 1028.2 |
| 20260906165012 | 70 | 37 | 2.0 | 8.0 | 0.00 | 0.00 | 0.00 | 35 | 1028.2 |
| 20260906164525 | 69 | 221 | 3.0 | 8.0 | 0.00 | 0.00 | 0.00 | 34 | 1028.2 |
| 20260906164006 | 69 | 247 | 2.0 | 6.0 | 0.00 | 0.00 | 0.00 | 37 | 1028.2 |
| 20260906163513 | 69 | 26 | 3.0 | 8.0 | 0.00 | 0.00 | 0.00 | 35 | 1028.3 |
| 20260906163021 | 68 | 128 | 1.0 | 11.0 | 0.00 | 0.00 | 0.00 | 39 | 1028.3 |
| 20260906162513 | 68 | 103 | 2.0 | 11.0 | 0.00 | 0.00 | 0.00 | 37 | 1028.2 |
| 20260906162012 | 67 | 359 | 5.0 | 9.0 | 0.00 | 0.00 | 0.00 | 38 | 1028.2 |
| 20260906161524 | 66 | 43 | 4.0 | 6.0 | 0.00 | 0.00 | 0.00 | 43 | 1028.2 |
| 20260906161011 | 66 | 49 | 3.0 | 5.0 | 0.00 | 0.00 | 0.00 | 45 | 1028.3 |
| 20260906160513 | 64 | 32 | 0.0 | 4.0 | 0.00 | 0.00 | 0.00 | 52 | 1028.3 |
| 20260906160029 | 63 | 27 | 2.0 | 4.0 | 0.00 | 0.00 | 0.00 | 48 | 1028.3 |
| 20260906155514 | 62 | 356 | 1.0 | 4.0 | 0.00 | 0.00 | 0.00 | 49 | 1028.3 |
| 20260906155015 | 61 | 35 | 0.0 | 0.0 | 0.00 | 0.00 | 0.00 | 51 | 1028.3 |
| 20260906154525 | 59 | 309 | 0.0 | 0.0 | 0.00 | 0.00 | 0.00 | 59 | 1028.3 |
| 20260906154010 | 57 | 131 | 0.0 | 0.0 | 0.00 | 0.00 | 0.00 | 71 | 1028.3 |
| 20260906153510 | 57 | 131 | 0.0 | 0.0 | 0.00 | 0.00 | 0.00 | 72 | 1028.4 |
| 20260906153029 | 57 | 132 | 0.0 | 0.0 | 0.00 | 0.00 | 0.00 | 71 | 1028.3 |
| 20260906152511 | 56 | 122 | 0.0 | 0.0 | 0.00 | 0.00 | 0.00 | 69 | 1028.3 |
| 20260906152011 | 54 | 122 | 0.0 | 0.0 | 0.00 | 0.00 | 0.00 | 73 | 1028.4 |
| 20260906151528 | 53 | 124 | 0.0 | 0.0 | 0.00 | 0.00 | 0.00 | 76 | 1028.5 |
| 20260906151014 | 53 | 124 | 0.0 | 0.0 | 0.00 | 0.00 | 0.00 | 76 | 1028.6 |
| 20260906150511 | 53 | 126 | 0.0 | 0.0 | 0.00 | 0.00 | 0.00 | 75 | 1028.6 |
| 20260906150032 | 51 | 127 | 0.0 | 0.0 | 0.00 | 0.00 | 0.00 | 80 | 1028.5 |
| 20260906145508 | 50 | 127 | 0.0 | 0.0 | 0.00 | 0.00 | 0.00 | 81 | 1028.5 |
| 20260906145014 | 49 | 127 | 0.0 | 0.0 | 0.00 | 0.00 | 0.00 | 83 | 1028.5 |
| 20260906144529 | 48 | 127 | 0.0 | 0.0 | 0.00 | 0.00 | 0.00 | 85 | 1028.5 |
| 20260906144011 | 47 | 127 | 0.0 | 0.0 | 0.00 | 0.00 | 0.00 | 83 | 1028.5 |
| 20260906143514 | 47 | 127 | 0.0 | 0.0 | 0.00 | 0.00 | 0.00 | 86 | 1028.5 |
| 20260906143027 | 46 | 127 | 0.0 | 0.0 | 0.00 | 0.00 | 0.00 | 87 | 1028.5 |
| 20260906142514 | 45 | 127 | 0.0 | 0.0 | 0.00 | 0.00 | 0.00 | 85 | 1028.5 |
| 20260906142012 | 44 | 127 | 0.0 | 0.0 | 0.00 | 0.00 | 0.00 | 84 | 1028.6 |
| 20260906141527 | 43 | 127 | 0.0 | 0.0 | 0.00 | 0.00 | 0.00 | 84 | 1028.5 |
| 20260906141015 | 43 | 204 | 0.0 | 0.0 | 0.00 | 0.00 | 0.00 | 85 | 1028.5 |
| 20260906140517 | 43 | 204 | 0.0 | 0.0 | 0.00 | 0.00 | 0.00 | 86 | 1028.4 |
| 20260906140029 | 41 | 204 | 0.0 | 0.0 | 0.00 | 0.00 | 0.00 | 87 | 1028.4 |
| 20260906135515 | 41 | 205 | 0.0 | 0.0 | 0.00 | 0.00 | 0.00 | 88 | 1028.5 |
| 20260906135010 | 40 | 217 | 0.0 | 0.0 | 0.00 | 0.00 | 0.00 | 90 | 1028.4 |
| 20260906134531 | 39 | 217 | 0.0 | 0.0 | 0.00 | 0.00 | 0.00 | 91 | 1028.5 |
| 20260906134014 | 39 | 217 | 0.0 | 0.0 | 0.00 | 0.00 | 0.00 | 90 | 1028.5 |
| 20260906133519 | 38 | 217 | 0.0 | 0.0 | 0.00 | 0.00 | 0.00 | 89 | 1028.5 |
| 20260906133038 | 38 | 217 | 0.0 | 0.0 | 0.00 | 0.00 | 0.00 | 89 | 1028.4 |
| 20260906132514 | 39 | 217 | 0.0 | 0.0 | 0.00 | 0.00 | 0.00 | 88 | 1028.3 |
| 20260906132015 | 39 | 217 | 0.0 | 0.0 | 0.00 | 0.00 | 0.00 | 89 | 1028.2 |
| 20260906131529 | 39 | 217 | 0.0 | 2.0 | 0.00 | 0.00 | 0.00 | 88 | 1028.2 |
| 20260906131015 | 39 | 217 | 0.0 | 2.0 | 0.00 | 0.00 | 0.00 | 89 | 1028.1 |
| 20260906130515 | 38 | 232 | 0.0 | 1.0 | 0.00 | 0.00 | 0.00 | 91 | 1028.1 |
| 20260906130031 | 37 | 232 | 0.0 | 2.0 | 0.00 | 0.00 | 0.00 | 91 | 1028.1 |
| 20260906125516 | 37 | 255 | 0.0 | 2.0 | 0.00 | 0.00 | 0.00 | 92 | 1028.1 |
| 20260906125015 | 36 | 70 | 0.0 | 0.0 | 0.00 | 0.00 | 0.00 | 92 | 1028.1 |
| 20260906124528 | 36 | 70 | 0.0 | 0.0 | 0.00 | 0.00 | 0.00 | 91 | 1028.2 |
| 20260906124018 | 37 | 70 | 0.0 | 0.0 | 0.00 | 0.00 | 0.00 | 92 | 1028.1 |
| 20260906123521 | 36 | 70 | 0.0 | 0.0 | 0.00 | 0.00 | 0.00 | 92 | 1028.1 |
| 20260906123003 | 36 | 70 | 0.0 | 0.0 | 0.00 | 0.00 | 0.00 | 92 | 1028.0 |
| 20260906122501 | 36 | 68 | 0.0 | 0.0 | 0.00 | 0.00 | 0.00 | 91 | 1028.1 |
| 20260906122004 | 36 | 68 | 0.0 | 0.0 | 0.00 | 0.00 | 0.00 | 90 | 1028.0 |
| 20260906121504 | 37 | 68 | 0.0 | 0.0 | 0.00 | 0.00 | 0.00 | 90 | 1028.0 |
| 20260906121003 | 37 | 68 | 0.0 | 0.0 | 0.00 | 0.00 | 0.00 | 90 | 1028.0 |
| 20260906120502 | 37 | 68 | 0.0 | 0.0 | 0.00 | 0.00 | 0.00 | 90 | 1028.0 |
| 20260906120003 | 37 | 68 | 0.0 | 0.0 | 0.00 | 0.00 | 0.00 | 90 | 1028.0 |
| 20260906115504 | 37 | 68 | 0.0 | 0.0 | 0.00 | 0.00 | 0.00 | 89 | 1028.0 |
| 20260906115002 | 37 | 68 | 0.0 | 0.0 | 0.00 | 0.00 | 0.00 | 88 | 1028.1 |
| 20260906114528 | 38 | 68 | 0.0 | 0.0 | 0.00 | 0.00 | 0.00 | 88 | 1028.1 |
| 20260906114004 | 38 | 68 | 0.0 | 0.0 | 0.00 | 0.00 | 0.00 | 87 | 1028.1 |
| 20260906113503 | 38 | 68 | 0.0 | 2.0 | 0.00 | 0.00 | 0.00 | 86 | 1028.0 |
| 20260906113017 | 39 | 65 | 0.0 | 2.0 | 0.00 | 0.00 | 0.00 | 85 | 1028.0 |
| 20260906112502 | 39 | 179 | 0.0 | 2.0 | 0.00 | 0.00 | 0.00 | 87 | 1028.0 |
| 20260906112002 | 39 | 224 | 1.0 | 2.0 | 0.00 | 0.00 | 0.00 | 87 | 1028.0 |
| 20260906111508 | 39 | 245 | 0.0 | 2.0 | 0.00 | 0.00 | 0.00 | 88 | 1028.1 |
| 20260906111002 | 38 | 236 | 0.0 | 1.0 | 0.00 | 0.00 | 0.00 | 89 | 1028.2 |
| 20260906110505 | 38 | 245 | 0.0 | 1.0 | 0.00 | 0.00 | 0.00 | 89 | 1028.2 |
| 20260906110007 | 38 | 244 | 0.0 | 1.0 | 0.00 | 0.00 | 0.00 | 90 | 1028.1 |
| 20260906105502 | 38 | 203 | 0.0 | 0.0 | 0.00 | 0.00 | 0.00 | 90 | 1028.0 |
| 20260906105003 | 38 | 217 | 0.0 | 0.0 | 0.00 | 0.00 | 0.00 | 90 | 1028.1 |
| 20260906104504 | 38 | 217 | 0.0 | 0.0 | 0.00 | 0.00 | 0.00 | 90 | 1028.1 |
| 20260906104008 | 38 | 217 | 0.0 | 0.0 | 0.00 | 0.00 | 0.00 | 91 | 1028.1 |
| 20260906103503 | 37 | 217 | 0.0 | 0.0 | 0.00 | 0.00 | 0.00 | 91 | 1028.0 |
| 20260906103004 | 37 | 217 | 0.0 | 0.0 | 0.00 | 0.00 | 0.00 | 90 | 1028.1 |
| 20260906102506 | 37 | 217 | 0.0 | 0.0 | 0.00 | 0.00 | 0.00 | 89 | 1028.0 |
| 20260906102003 | 37 | 217 | 0.0 | 0.0 | 0.00 | 0.00 | 0.00 | 88 | 1028.0 |
| 20260906101509 | 38 | 217 | 0.0 | 0.0 | 0.00 | 0.00 | 0.00 | 88 | 1028.0 |
| 20260906101004 | 38 | 217 | 0.0 | 0.0 | 0.00 | 0.00 | 0.00 | 86 | 1028.1 |
| 20260906100506 | 38 | 217 | 0.0 | 0.0 | 0.00 | 0.00 | 0.00 | 86 | 1028.0 |
| 20260906100025 | 39 | 217 | 0.0 | 0.0 | 0.00 | 0.00 | 0.00 | 87 | 1028.0 |
| 20260906095503 | 39 | 217 | 0.0 | 1.0 | 0.00 | 0.00 | 0.00 | 86 | 1027.9 |
| 20260906095003 | 39 | 217 | 0.0 | 1.0 | 0.00 | 0.00 | 0.00 | 85 | 1027.9 |
| 20260906094516 | 40 | 217 | 0.0 | 2.0 | 0.00 | 0.00 | 0.00 | 86 | 1027.9 |
| 20260906094002 | 39 | 217 | 0.0 | 2.0 | 0.00 | 0.00 | 0.00 | 87 | 1027.9 |
| 20260906093513 | 39 | 234 | 0.0 | 1.0 | 0.00 | 0.00 | 0.00 | 88 | 1028.0 |
| 20260906093011 | 38 | 202 | 0.0 | 0.0 | 0.00 | 0.00 | 0.00 | 88 | 1028.0 |
| 20260906092502 | 39 | 202 | 0.0 | 0.0 | 0.00 | 0.00 | 0.00 | 86 | 1028.0 |
| 20260906092010 | 39 | 202 | 0.0 | 0.0 | 0.00 | 0.00 | 0.00 | 86 | 1028.0 |
| 20260906091514 | 39 | 202 | 0.0 | 0.0 | 0.00 | 0.00 | 0.00 | 86 | 1028.0 |
| 20260906091002 | 39 | 202 | 0.0 | 0.0 | 0.00 | 0.00 | 0.00 | 85 | 1027.9 |
| 20260906090508 | 40 | 202 | 0.0 | 0.0 | 0.00 | 0.00 | 0.00 | 83 | 1027.9 |
| 20260906090013 | 41 | 202 | 0.0 | 1.0 | 0.00 | 0.00 | 0.00 | 82 | 1028.0 |
| 20260906085509 | 41 | 202 | 0.0 | 2.0 | 0.00 | 0.00 | 0.00 | 82 | 1027.9 |
| 20260906085003 | 40 | 219 | 0.0 | 2.0 | 0.00 | 0.00 | 0.00 | 84 | 1027.8 |
| 20260906084504 | 40 | 206 | 0.0 | 0.0 | 0.00 | 0.00 | 0.00 | 85 | 1027.7 |
| 20260906084007 | 40 | 236 | 0.0 | 0.0 | 0.00 | 0.00 | 0.00 | 83 | 1027.7 |
| 20260906083505 | 41 | 236 | 0.0 | 0.0 | 0.00 | 0.00 | 0.00 | 83 | 1027.7 |
| 20260906083026 | 41 | 255 | 0.0 | 0.0 | 0.00 | 0.00 | 0.00 | 83 | 1027.7 |
| 20260906082507 | 41 | 255 | 0.0 | 0.0 | 0.00 | 0.00 | 0.00 | 83 | 1027.6 |
| 20260906082003 | 41 | 255 | 0.0 | 0.0 | 0.00 | 0.00 | 0.00 | 82 | 1027.7 |
| 20260906081523 | 42 | 255 | 0.0 | 1.0 | 0.00 | 0.00 | 0.00 | 81 | 1027.7 |
| 20260906081005 | 42 | 179 | 0.0 | 2.0 | 0.00 | 0.00 | 0.00 | 81 | 1027.6 |
| 20260906080502 | 42 | 174 | 1.0 | 2.0 | 0.00 | 0.00 | 0.00 | 82 | 1027.6 |
| 20260906080016 | 41 | 229 | 0.0 | 0.0 | 0.00 | 0.00 | 0.00 | 84 | 1027.7 |
| 20260906075504 | 40 | 229 | 0.0 | 0.0 | 0.00 | 0.00 | 0.00 | 86 | 1027.8 |
| 20260906075013 | 40 | 229 | 0.0 | 0.0 | 0.00 | 0.00 | 0.00 | 86 | 1027.8 |
| 20260906074514 | 40 | 229 | 0.0 | 0.0 | 0.00 | 0.00 | 0.00 | 84 | 1027.9 |
| 20260906074002 | 40 | 229 | 0.0 | 0.0 | 0.00 | 0.00 | 0.00 | 83 | 1027.9 |
| 20260906073508 | 41 | 229 | 0.0 | 0.0 | 0.00 | 0.00 | 0.00 | 81 | 1027.9 |
| 20260906073013 | 42 | 229 | 0.0 | 1.0 | 0.00 | 0.00 | 0.00 | 81 | 1027.9 |
| 20260906072503 | 42 | 229 | 0.0 | 2.0 | 0.00 | 0.00 | 0.00 | 81 | 1027.8 |
| 20260906072008 | 42 | 208 | 0.0 | 2.0 | 0.00 | 0.00 | 0.00 | 82 | 1027.8 |
| 20260906071509 | 41 | 208 | 0.0 | 2.0 | 0.00 | 0.00 | 0.00 | 84 | 1027.8 |
| 20260906071011 | 41 | 198 | 0.0 | 0.0 | 0.00 | 0.00 | 0.00 | 85 | 1027.9 |
| 20260906070507 | 41 | 198 | 0.0 | 0.0 | 0.00 | 0.00 | 0.00 | 83 | 1027.9 |
| 20260906070006 | 41 | 198 | 0.0 | 1.0 | 0.00 | 0.00 | 0.00 | 83 | 1027.9 |
| 20260906065509 | 42 | 198 | 0.0 | 1.0 | 0.00 | 0.00 | 0.00 | 81 | 1027.8 |
| 20260906065003 | 43 | 198 | 1.0 | 2.0 | 0.00 | 0.00 | 0.00 | 78 | 1027.8 |
| 20260906064530 | 43 | 198 | 0.0 | 2.0 | 0.00 | 0.00 | 0.00 | 78 | 1027.8 |
| 20260906064011 | 43 | 247 | 0.0 | 2.0 | 0.00 | 0.00 | 0.00 | 78 | 1027.8 |
| 20260906063507 | 43 | 249 | 0.0 | 2.0 | 0.00 | 0.00 | 0.00 | 80 | 1027.9 |
| 20260906063026 | 42 | 190 | 0.0 | 0.0 | 0.00 | 0.00 | 0.00 | 81 | 1027.9 |
| 20260906062505 | 43 | 190 | 0.0 | 0.0 | 0.00 | 0.00 | 0.00 | 80 | 1027.9 |
| 20260906062005 | 43 | 190 | 0.0 | 0.0 | 0.00 | 0.00 | 0.00 | 78 | 1027.9 |
| 20260906061522 | 44 | 190 | 0.0 | 1.0 | 0.00 | 0.00 | 0.00 | 76 | 1027.9 |
| 20260906061002 | 44 | 190 | 0.0 | 1.0 | 0.00 | 0.00 | 0.00 | 75 | 1027.9 |
| 20260906060513 | 45 | 214 | 0.0 | 1.0 | 0.00 | 0.00 | 0.00 | 76 | 1027.9 |
| 20260906060025 | 45 | 212 | 0.0 | 1.0 | 0.00 | 0.00 | 0.00 | 76 | 1027.8 |
| 20260906055503 | 45 | 207 | 1.0 | 1.0 | 0.00 | 0.00 | 0.00 | 75 | 1027.8 |
| 20260906055011 | 45 | 218 | 0.0 | 2.0 | 0.00 | 0.00 | 0.00 | 75 | 1027.8 |
| 20260906054520 | 45 | 218 | 0.0 | 2.0 | 0.00 | 0.00 | 0.00 | 75 | 1027.7 |
| 20260906054015 | 45 | 212 | 0.0 | 3.0 | 0.00 | 0.00 | 0.00 | 74 | 1027.8 |
| 20260906053510 | 45 | 238 | 0.0 | 3.0 | 0.00 | 0.00 | 0.00 | 74 | 1027.8 |
| 20260906053010 | 45 | 245 | 0.0 | 0.0 | 0.00 | 0.00 | 0.00 | 76 | 1027.7 |
| 20260906052512 | 46 | 248 | 0.0 | 0.0 | 0.00 | 0.00 | 0.00 | 74 | 1027.7 |
| 20260906052007 | 46 | 248 | 0.0 | 0.0 | 0.00 | 0.00 | 0.00 | 73 | 1027.7 |
| 20260906051505 | 46 | 238 | 0.0 | 0.0 | 0.00 | 0.00 | 0.00 | 73 | 1027.7 |
| 20260906051011 | 47 | 226 | 0.0 | 0.0 | 0.00 | 0.00 | 0.00 | 72 | 1027.7 |
| 20260906050505 | 47 | 226 | 0.0 | 0.0 | 0.00 | 0.00 | 0.00 | 71 | 1027.7 |
| 20260906050035 | 48 | 226 | 0.0 | 2.0 | 0.00 | 0.00 | 0.00 | 69 | 1027.7 |
| 20260906045511 | 48 | 226 | 0.0 | 2.0 | 0.00 | 0.00 | 0.00 | 68 | 1027.7 |
| 20260906045001 | 48 | 206 | 1.0 | 2.0 | 0.00 | 0.00 | 0.00 | 69 | 1027.8 |
| 20260906044528 | 48 | 220 | 1.0 | 1.0 | 0.00 | 0.00 | 0.00 | 71 | 1027.6 |
| 20260906044006 | 48 | 243 | 0.0 | 1.0 | 0.00 | 0.00 | 0.00 | 71 | 1027.6 |
| 20260906043513 | 48 | 210 | 0.0 | 1.0 | 0.00 | 0.00 | 0.00 | 70 | 1027.7 |
| 20260906043025 | 48 | 210 | 0.0 | 1.0 | 0.00 | 0.00 | 0.00 | 70 | 1027.7 |
| 20260906042507 | 48 | 233 | 0.0 | 0.0 | 0.00 | 0.00 | 0.00 | 71 | 1027.7 |
| 20260906042015 | 48 | 254 | 0.0 | 0.0 | 0.00 | 0.00 | 0.00 | 71 | 1027.6 |
| 20260906041521 | 48 | 254 | 0.0 | 1.0 | 0.00 | 0.00 | 0.00 | 72 | 1027.7 |
| 20260906041005 | 49 | 252 | 0.0 | 2.0 | 0.00 | 0.00 | 0.00 | 70 | 1027.7 |
| 20260906040513 | 49 | 253 | 0.0 | 2.0 | 0.00 | 0.00 | 0.00 | 69 | 1027.7 |
| 20260906040037 | 50 | 256 | 0.0 | 3.0 | 0.00 | 0.00 | 0.00 | 68 | 1027.7 |
| 20260906035514 | 50 | 256 | 2.0 | 3.0 | 0.00 | 0.00 | 0.00 | 68 | 1027.7 |
| 20260906035012 | 50 | 163 | 0.0 | 0.0 | 0.00 | 0.00 | 0.00 | 67 | 1027.6 |
| 20260906034515 | 51 | 162 | 0.0 | 0.0 | 0.00 | 0.00 | 0.00 | 65 | 1027.7 |
| 20260906034015 | 52 | 162 | 0.0 | 0.0 | 0.00 | 0.00 | 0.00 | 62 | 1027.6 |
| 20260906033509 | 52 | 162 | 0.0 | 0.0 | 0.00 | 0.00 | 0.00 | 60 | 1027.6 |
| 20260906033046 | 52 | 196 | 0.0 | 0.0 | 0.00 | 0.00 | 0.00 | 61 | 1027.5 |
| 20260906032511 | 52 | 198 | 0.0 | 0.0 | 0.00 | 0.00 | 0.00 | 61 | 1027.5 |
| 20260906032007 | 53 | 198 | 0.0 | 0.0 | 0.00 | 0.00 | 0.00 | 61 | 1027.4 |
| 20260906031531 | 53 | 198 | 0.0 | 1.0 | 0.00 | 0.00 | 0.00 | 61 | 1027.4 |
| 20260906031011 | 54 | 198 | 0.0 | 2.0 | 0.00 | 0.00 | 0.00 | 60 | 1027.4 |
| 20260906030504 | 54 | 165 | 1.0 | 2.0 | 0.00 | 0.00 | 0.00 | 59 | 1027.3 |
| 20260906030031 | 54 | 206 | 0.0 | 2.0 | 0.00 | 0.00 | 0.00 | 59 | 1027.2 |
| 20260906025509 | 54 | 210 | 0.0 | 0.0 | 0.00 | 0.00 | 0.00 | 60 | 1027.2 |
| 20260906025018 | 54 | 203 | 0.0 | 1.0 | 0.00 | 0.00 | 0.00 | 61 | 1027.2 |
| 20260906024530 | 55 | 137 | 0.0 | 1.0 | 0.00 | 0.00 | 0.00 | 61 | 1027.1 |
| 20260906024009 | 55 | 137 | 0.0 | 1.0 | 0.00 | 0.00 | 0.00 | 60 | 1027.1 |
| 20260906023516 | 56 | 193 | 0.0 | 2.0 | 0.00 | 0.00 | 0.00 | 57 | 1027.1 |
| 20260906023028 | 56 | 206 | 1.0 | 3.0 | 0.00 | 0.00 | 0.00 | 57 | 1027.0 |
| 20260906022503 | 56 | 217 | 1.0 | 3.0 | 0.00 | 0.00 | 0.00 | 57 | 1027.0 |
| 20260906022014 | 57 | 224 | 1.0 | 2.0 | 0.00 | 0.00 | 0.00 | 58 | 1026.9 |
| 20260906021522 | 57 | 203 | 1.0 | 3.0 | 0.00 | 0.00 | 0.00 | 57 | 1026.9 |
| 20260906021006 | 58 | 221 | 1.0 | 3.0 | 0.00 | 0.00 | 0.00 | 56 | 1026.8 |
| 20260906020513 | 58 | 214 | 1.0 | 2.0 | 0.00 | 0.00 | 0.00 | 56 | 1026.8 |
| 20260906020019 | 59 | 227 | 0.0 | 0.0 | 0.00 | 0.00 | 0.00 | 56 | 1026.8 |
| 20260906015503 | 60 | 213 | 0.0 | 0.0 | 0.00 | 0.00 | 0.00 | 54 | 1026.8 |
| 20260906015011 | 60 | 203 | 0.0 | 0.0 | 0.00 | 0.00 | 0.00 | 55 | 1026.7 |
| 20260906014515 | 61 | 205 | 0.0 | 0.0 | 0.00 | 0.00 | 0.00 | 55 | 1026.7 |
| 20260906014016 | 62 | 210 | 0.0 | 0.0 | 0.00 | 0.00 | 0.00 | 52 | 1026.6 |
| 20260906013510 | 63 | 211 | 0.0 | 0.0 | 0.00 | 0.00 | 0.00 | 49 | 1026.6 |
| 20260906013007 | 64 | 214 | 0.0 | 0.0 | 0.00 | 0.00 | 0.00 | 49 | 1026.6 |
| 20260906012517 | 65 | 225 | 0.0 | 0.0 | 0.00 | 0.00 | 0.00 | 49 | 1026.6 |
| 20260906012005 | 66 | 207 | 0.0 | 0.0 | 0.00 | 0.00 | 0.00 | 46 | 1026.6 |
| 20260906011506 | 67 | 229 | 0.0 | 0.0 | 0.00 | 0.00 | 0.00 | 45 | 1026.6 |
| 20260906011009 | 69 | 251 | 0.0 | 0.0 | 0.00 | 0.00 | 0.00 | 42 | 1026.6 |
| 20260906010503 | 70 | 251 | 0.0 | 0.0 | 0.00 | 0.00 | 0.00 | 41 | 1026.6 |
| 20260906010027 | 71 | 251 | 0.0 | 2.0 | 0.00 | 0.00 | 0.00 | 41 | 1026.7 |
| 20260906005510 | 71 | 251 | 0.0 | 2.0 | 0.00 | 0.00 | 0.00 | 37 | 1026.7 |
| 20260906005003 | 72 | 220 | 1.0 | 2.0 | 0.00 | 0.00 | 0.00 | 35 | 1026.7 |
| 20260906004527 | 73 | 220 | 0.0 | 3.0 | 0.00 | 0.00 | 0.00 | 36 | 1026.7 |
| 20260906004009 | 74 | 248 | 1.0 | 3.0 | 0.00 | 0.00 | 0.00 | 32 | 1026.7 |
| 20260906003515 | 74 | 265 | 0.0 | 4.0 | 0.00 | 0.00 | 0.00 | 34 | 1026.7 |
| 20260906003020 | 74 | 272 | 1.0 | 4.0 | 0.00 | 0.00 | 0.00 | 30 | 1026.7 |
| 20260906002504 | 74 | 264 | 0.0 | 3.0 | 0.00 | 0.00 | 0.00 | 34 | 1026.7 |
| 20260906002012 | 73 | 289 | 1.0 | 4.0 | 0.00 | 0.00 | 0.00 | 32 | 1026.7 |
| 20260906001523 | 72 | 283 | 1.0 | 5.0 | 0.00 | 0.00 | 0.00 | 33 | 1026.8 |
| 20260906001003 | 72 | 281 | 2.0 | 5.0 | 0.00 | 0.00 | 0.00 | 34 | 1026.7 |
| 20260906000512 | 72 | 293 | 1.0 | 6.0 | 0.00 | 0.00 | 0.00 | 37 | 1026.6 |
| 20260906000017 | 72 | 263 | 3.0 | 6.0 | 0.00 | 0.00 | 0.00 | 33 | 1026.6 |
| 20260905235515 | 72 | 257 | 2.0 | 4.0 | 0.00 | 0.00 | 0.00 | 34 | 1026.6 |
| 20260905235009 | 72 | 287 | 1.0 | 7.0 | 0.00 | 0.00 | 0.00 | 33 | 1026.6 |
| 20260905234512 | 72 | 299 | 3.0 | 7.0 | 0.00 | 0.00 | 0.00 | 33 | 1026.6 |
| 20260905234012 | 72 | 288 | 2.0 | 5.0 | 0.00 | 0.00 | 0.00 | 33 | 1026.6 |
| 20260905233514 | 72 | 354 | 2.0 | 6.0 | 0.00 | 0.00 | 0.00 | 33 | 1026.5 |
| 20260905233009 | 72 | 280 | 2.0 | 7.0 | 0.00 | 0.00 | 0.00 | 33 | 1026.4 |
| 20260905232512 | 73 | 297 | 4.0 | 7.0 | 0.00 | 0.00 | 0.00 | 32 | 1026.5 |
| 20260905232006 | 73 | 307 | 2.0 | 7.0 | 0.00 | 0.00 | 0.00 | 31 | 1026.5 |
| 20260905231531 | 74 | 265 | 3.0 | 5.0 | 0.00 | 0.00 | 0.00 | 31 | 1026.5 |
| 20260905231010 | 75 | 285 | 2.0 | 9.0 | 0.00 | 0.00 | 0.00 | 30 | 1026.6 |
| 20260905230504 | 75 | 265 | 5.0 | 9.0 | 0.00 | 0.00 | 0.00 | 30 | 1026.5 |
| 20260905230029 | 76 | 287 | 4.0 | 6.0 | 0.00 | 0.00 | 0.00 | 29 | 1026.4 |
| 20260905225510 | 75 | 47 | 2.0 | 4.0 | 0.00 | 0.00 | 0.00 | 30 | 1026.5 |
| 20260905225018 | 75 | 34 | 1.0 | 5.0 | 0.00 | 0.00 | 0.00 | 30 | 1026.5 |
| 20260905224602 | 74 | 260 | 1.0 | 5.0 | 0.00 | 0.00 | 0.00 | 31 | 1026.5 |
| 20260905224007 | 74 | 167 | 1.0 | 5.0 | 0.00 | 0.00 | 0.00 | 31 | 1026.6 |
| 20260905223514 | 75 | 259 | 2.0 | 5.0 | 0.00 | 0.00 | 0.00 | 30 | 1026.6 |
| 20260905223024 | 75 | 123 | 0.0 | 7.0 | 0.00 | 0.00 | 0.00 | 31 | 1026.5 |
| 20260905222503 | 76 | 261 | 1.0 | 7.0 | 0.00 | 0.00 | 0.00 | 30 | 1026.5 |
| 20260905222014 | 76 | 343 | 2.0 | 5.0 | 0.00 | 0.00 | 0.00 | 31 | 1026.5 |
| 20260905221522 | 76 | 129 | 3.0 | 5.0 | 0.00 | 0.00 | 0.00 | 30 | 1026.5 |
| 20260905221017 | 75 | 42 | 2.0 | 6.0 | 0.00 | 0.00 | 0.00 | 31 | 1026.7 |